| time (UTC) | temp C | wind direction | speed KPH | gust KPH | rain 1hr cm | rain 24hr cm | rain mn cm | humidity % | barometer mb |
| 20260508145805 | 10 | 180 | 1.6 | 6.4 | 0.00 | 0.00 | 0.00 | 86 | 1020.8 |
| 20260508145306 | 10 | 122 | 0.0 | 4.8 | 0.00 | 0.00 | 0.00 | 87 | 1020.8 |
| 20260508144739 | 9 | 172 | 1.6 | 4.8 | 0.00 | 0.00 | 0.00 | 87 | 1020.8 |
| 20260508144226 | 9 | 114 | 0.0 | 3.2 | 0.00 | 0.00 | 0.00 | 89 | 1020.8 |
| 20260508143734 | 9 | 101 | 0.0 | 3.2 | 0.00 | 0.00 | 0.00 | 90 | 1020.7 |
| 20260508143222 | 8 | 49 | 1.6 | 3.2 | 0.00 | 0.00 | 0.00 | 90 | 1020.6 |
| 20260508142808 | 8 | 46 | 0.0 | 3.2 | 0.00 | 0.00 | 0.00 | 91 | 1020.4 |
| 20260508142306 | 8 | 82 | 0.0 | 3.2 | 0.00 | 0.00 | 0.00 | 91 | 1020.4 |
| 20260508142233 | 8 | 82 | 0.0 | 3.2 | 0.00 | 0.00 | 0.00 | 91 | 1020.4 |
| 20260508141801 | 8 | 69 | 0.0 | 3.2 | 0.00 | 0.00 | 0.00 | 91 | 1020.3 |
| 20260508141729 | 8 | 69 | 0.0 | 3.2 | 0.00 | 0.00 | 0.00 | 91 | 1020.3 |
| 20260508141237 | 8 | 149 | 0.0 | 3.2 | 0.00 | 0.00 | 0.00 | 92 | 1020.3 |
| 20260508140805 | 8 | 151 | 0.0 | 3.2 | 0.00 | 0.00 | 0.00 | 92 | 1020.1 |
| 20260508140733 | 8 | 151 | 0.0 | 3.2 | 0.00 | 0.00 | 0.00 | 92 | 1020.1 |
| 20260508140224 | 8 | 140 | 0.0 | 3.2 | 0.00 | 0.00 | 0.00 | 92 | 1019.9 |
| 20260508135807 | 8 | 5 | 0.0 | 0.0 | 0.00 | 0.00 | 0.00 | 92 | 1019.8 |
| 20260508135306 | 8 | 5 | 0.0 | 0.0 | 0.00 | 0.00 | 0.00 | 93 | 1019.7 |
| 20260508134725 | 8 | 5 | 0.0 | 0.0 | 0.00 | 0.00 | 0.00 | 93 | 1019.6 |
| 20260508134233 | 7 | 5 | 0.0 | 0.0 | 0.00 | 0.00 | 0.00 | 93 | 1019.5 |
| 20260508133721 | 7 | 5 | 0.0 | 0.0 | 0.00 | 0.00 | 0.00 | 92 | 1019.5 |
| 20260508133228 | 7 | 5 | 0.0 | 0.0 | 0.00 | 0.00 | 0.00 | 92 | 1019.5 |
| 20260508132735 | 7 | 5 | 0.0 | 0.0 | 0.00 | 0.00 | 0.00 | 93 | 1019.4 |
| 20260508132306 | 7 | 5 | 0.0 | 0.0 | 0.00 | 0.00 | 0.00 | 93 | 1019.3 |
| 20260508131739 | 7 | 346 | 0.0 | 0.0 | 0.00 | 0.00 | 0.00 | 92 | 1019.2 |
| 20260508131306 | 7 | 346 | 0.0 | 0.0 | 0.00 | 0.00 | 0.00 | 92 | 1019.2 |
| 20260508130723 | 7 | 346 | 0.0 | 0.0 | 0.00 | 0.00 | 0.00 | 93 | 1019.2 |
| 20260508130231 | 8 | 346 | 0.0 | 0.0 | 0.00 | 0.00 | 0.00 | 93 | 1019.1 |
| 20260508125738 | 8 | 346 | 0.0 | 0.0 | 0.00 | 0.00 | 0.00 | 94 | 1019.0 |
| 20260508125230 | 7 | 346 | 0.0 | 0.0 | 0.00 | 0.00 | 0.00 | 93 | 1019.0 |
| 20260508124758 | 7 | 346 | 0.0 | 0.0 | 0.00 | 0.00 | 0.00 | 94 | 1019.0 |
| 20260508124726 | 7 | 346 | 0.0 | 0.0 | 0.00 | 0.00 | 0.00 | 94 | 1019.0 |
| 20260508124254 | 7 | 346 | 0.0 | 0.0 | 0.00 | 0.00 | 0.00 | 94 | 1018.9 |
| 20260508124222 | 7 | 346 | 0.0 | 0.0 | 0.00 | 0.00 | 0.00 | 94 | 1018.9 |
| 20260508123806 | 7 | 346 | 0.0 | 0.0 | 0.00 | 0.00 | 0.00 | 94 | 1018.9 |
| 20260508123227 | 7 | 346 | 0.0 | 0.0 | 0.00 | 0.00 | 0.00 | 93 | 1018.9 |
| 20260508122754 | 7 | 346 | 0.0 | 0.0 | 0.00 | 0.00 | 0.00 | 93 | 1018.9 |
| 20260508122722 | 7 | 346 | 0.0 | 0.0 | 0.00 | 0.00 | 0.00 | 93 | 1018.9 |
| 20260508122310 | 7 | 346 | 0.0 | 0.0 | 0.00 | 0.00 | 0.00 | 93 | 1018.8 |
| 20260508122238 | 7 | 346 | 0.0 | 0.0 | 0.00 | 0.00 | 0.00 | 93 | 1018.8 |
| 20260508121726 | 7 | 346 | 0.0 | 0.0 | 0.00 | 0.00 | 0.00 | 93 | 1018.8 |
| 20260508121234 | 7 | 346 | 0.0 | 0.0 | 0.00 | 0.00 | 0.00 | 92 | 1018.8 |
| 20260508120722 | 7 | 346 | 0.0 | 0.0 | 0.00 | 0.00 | 0.00 | 92 | 1018.7 |
| 20260508120230 | 7 | 346 | 0.0 | 0.0 | 0.00 | 0.00 | 0.00 | 92 | 1018.7 |
| 20260508115757 | 7 | 346 | 0.0 | 0.0 | 0.00 | 0.00 | 0.00 | 93 | 1018.6 |
| 20260508115234 | 7 | 346 | 0.0 | 0.0 | 0.00 | 0.00 | 0.00 | 93 | 1018.6 |
| 20260508114802 | 7 | 346 | 0.0 | 0.0 | 0.00 | 0.00 | 0.00 | 93 | 1018.6 |
| 20260508114239 | 7 | 346 | 0.0 | 0.0 | 0.00 | 0.00 | 0.00 | 93 | 1018.5 |
| 20260508113727 | 7 | 345 | 0.0 | 0.0 | 0.00 | 0.00 | 0.00 | 92 | 1018.5 |
| 20260508113235 | 7 | 346 | 0.0 | 0.0 | 0.00 | 0.00 | 0.00 | 93 | 1018.3 |
| 20260508112726 | 7 | 346 | 0.0 | 0.0 | 0.00 | 0.00 | 0.00 | 93 | 1018.2 |
| 20260508112234 | 7 | 346 | 0.0 | 0.0 | 0.00 | 0.00 | 0.00 | 93 | 1018.2 |
| 20260508111722 | 7 | 346 | 0.0 | 0.0 | 0.00 | 0.00 | 0.00 | 92 | 1018.2 |
| 20260508111310 | 7 | 346 | 0.0 | 0.0 | 0.00 | 0.00 | 0.00 | 92 | 1017.9 |
| 20260508110727 | 7 | 346 | 0.0 | 0.0 | 0.00 | 0.00 | 0.00 | 92 | 1017.9 |
| 20260508110235 | 7 | 346 | 0.0 | 0.0 | 0.00 | 0.00 | 0.00 | 91 | 1017.8 |
| 20260508105721 | 7 | 346 | 0.0 | 0.0 | 0.00 | 0.00 | 0.00 | 91 | 1017.7 |
| 20260508105309 | 7 | 346 | 0.0 | 0.0 | 0.00 | 0.00 | 0.00 | 91 | 1017.7 |
| 20260508104724 | 7 | 346 | 0.0 | 0.0 | 0.00 | 0.00 | 0.00 | 91 | 1017.7 |
| 20260508104232 | 7 | 346 | 0.0 | 0.0 | 0.00 | 0.00 | 0.00 | 92 | 1017.6 |
| 20260508103800 | 7 | 346 | 0.0 | 0.0 | 0.00 | 0.00 | 0.00 | 92 | 1017.6 |
| 20260508103256 | 7 | 346 | 0.0 | 0.0 | 0.00 | 0.00 | 0.00 | 92 | 1017.6 |
| 20260508102752 | 7 | 346 | 0.0 | 0.0 | 0.00 | 0.00 | 0.00 | 92 | 1017.6 |
| 20260508102229 | 7 | 346 | 0.0 | 0.0 | 0.00 | 0.00 | 0.00 | 92 | 1017.5 |
| 20260508101756 | 7 | 346 | 0.0 | 0.0 | 0.00 | 0.00 | 0.00 | 92 | 1017.6 |
| 20260508101233 | 7 | 346 | 0.0 | 0.0 | 0.00 | 0.00 | 0.00 | 92 | 1017.6 |
| 20260508100725 | 7 | 346 | 0.0 | 0.0 | 0.00 | 0.00 | 0.00 | 92 | 1017.5 |
| 20260508100309 | 7 | 346 | 0.0 | 0.0 | 0.00 | 0.00 | 0.00 | 91 | 1017.6 |
| 20260508095804 | 7 | 346 | 0.0 | 0.0 | 0.00 | 0.00 | 0.00 | 91 | 1017.5 |
| 20260508095732 | 7 | 346 | 0.0 | 0.0 | 0.00 | 0.00 | 0.00 | 91 | 1017.5 |
| 20260508095224 | 7 | 346 | 0.0 | 0.0 | 0.00 | 0.00 | 0.00 | 90 | 1017.5 |
| 20260508094812 | 7 | 346 | 0.0 | 0.0 | 0.00 | 0.00 | 0.00 | 90 | 1017.5 |
| 20260508094228 | 7 | 346 | 0.0 | 0.0 | 0.00 | 0.00 | 0.00 | 91 | 1017.4 |
| 20260508093755 | 7 | 346 | 0.0 | 0.0 | 0.00 | 0.00 | 0.00 | 91 | 1017.6 |
| 20260508093724 | 7 | 346 | 0.0 | 0.0 | 0.00 | 0.00 | 0.00 | 91 | 1017.6 |
| 20260508093232 | 7 | 346 | 0.0 | 0.0 | 0.00 | 0.00 | 0.00 | 91 | 1017.5 |
| 20260508092758 | 8 | 346 | 0.0 | 0.0 | 0.00 | 0.00 | 0.00 | 90 | 1017.6 |
| 20260508092727 | 8 | 346 | 0.0 | 0.0 | 0.00 | 0.00 | 0.00 | 90 | 1017.6 |
| 20260508092313 | 8 | 346 | 0.0 | 0.0 | 0.00 | 0.00 | 0.00 | 90 | 1017.6 |
| 20260508091727 | 8 | 346 | 0.0 | 0.0 | 0.00 | 0.00 | 0.00 | 90 | 1017.5 |
| 20260508091235 | 8 | 346 | 0.0 | 0.0 | 0.00 | 0.00 | 0.00 | 90 | 1017.5 |
| 20260508090723 | 8 | 346 | 0.0 | 0.0 | 0.00 | 0.00 | 0.00 | 90 | 1017.6 |
| 20260508090311 | 8 | 346 | 0.0 | 0.0 | 0.00 | 0.00 | 0.00 | 90 | 1017.6 |
| 20260508090239 | 8 | 346 | 0.0 | 0.0 | 0.00 | 0.00 | 0.00 | 90 | 1017.6 |
| 20260508085805 | 8 | 346 | 0.0 | 0.0 | 0.00 | 0.00 | 0.00 | 90 | 1017.6 |
| 20260508085222 | 8 | 346 | 0.0 | 0.0 | 0.00 | 0.00 | 0.00 | 90 | 1017.5 |
| 20260508084730 | 8 | 346 | 0.0 | 0.0 | 0.00 | 0.00 | 0.00 | 89 | 1017.4 |
| 20260508084258 | 8 | 346 | 0.0 | 0.0 | 0.00 | 0.00 | 0.00 | 88 | 1017.5 |
| 20260508083734 | 8 | 346 | 0.0 | 0.0 | 0.00 | 0.00 | 0.00 | 88 | 1017.5 |
| 20260508083222 | 8 | 346 | 0.0 | 0.0 | 0.00 | 0.00 | 0.00 | 87 | 1017.5 |
| 20260508082808 | 8 | 346 | 0.0 | 3.2 | 0.00 | 0.00 | 0.00 | 87 | 1017.5 |
| 20260508082229 | 8 | 313 | 0.0 | 3.2 | 0.00 | 0.00 | 0.00 | 88 | 1017.5 |
| 20260508081737 | 9 | 313 | 0.0 | 0.0 | 0.00 | 0.00 | 0.00 | 89 | 1017.5 |
| 20260508081225 | 9 | 313 | 0.0 | 0.0 | 0.00 | 0.00 | 0.00 | 89 | 1017.5 |
| 20260508080733 | 9 | 313 | 0.0 | 0.0 | 0.00 | 0.00 | 0.00 | 89 | 1017.5 |
| 20260508080241 | 9 | 313 | 0.0 | 0.0 | 0.00 | 0.00 | 0.00 | 88 | 1017.5 |
| 20260508075808 | 9 | 313 | 0.0 | 0.0 | 0.00 | 0.00 | 0.00 | 88 | 1017.4 |
| 20260508075736 | 9 | 313 | 0.0 | 0.0 | 0.00 | 0.00 | 0.00 | 88 | 1017.4 |
| 20260508075224 | 9 | 313 | 0.0 | 0.0 | 0.00 | 0.00 | 0.00 | 89 | 1017.5 |
| 20260508074811 | 9 | 313 | 0.0 | 0.0 | 0.00 | 0.00 | 0.00 | 89 | 1017.5 |
| 20260508074228 | 9 | 313 | 0.0 | 0.0 | 0.00 | 0.00 | 0.00 | 89 | 1017.5 |
| 20260508073756 | 9 | 313 | 0.0 | 0.0 | 0.00 | 0.00 | 0.00 | 89 | 1017.5 |
| 20260508073232 | 9 | 313 | 0.0 | 0.0 | 0.00 | 0.00 | 0.00 | 89 | 1017.5 |
| 20260508072739 | 9 | 313 | 0.0 | 0.0 | 0.00 | 0.00 | 0.00 | 89 | 1017.5 |
| 20260508072227 | 9 | 313 | 0.0 | 0.0 | 0.00 | 0.00 | 0.00 | 89 | 1017.6 |
| 20260508071739 | 9 | 313 | 0.0 | 0.0 | 0.00 | 0.00 | 0.00 | 89 | 1017.5 |
| 20260508071227 | 9 | 313 | 0.0 | 0.0 | 0.00 | 0.00 | 0.00 | 88 | 1017.5 |
| 20260508070735 | 9 | 313 | 0.0 | 0.0 | 0.00 | 0.00 | 0.00 | 89 | 1017.5 |
| 20260508070303 | 9 | 313 | 0.0 | 0.0 | 0.00 | 0.00 | 0.00 | 89 | 1017.6 |
| 20260508070231 | 9 | 313 | 0.0 | 0.0 | 0.00 | 0.00 | 0.00 | 89 | 1017.6 |
| 20260508065735 | 9 | 313 | 0.0 | 0.0 | 0.00 | 0.00 | 0.00 | 89 | 1017.6 |
| 20260508065223 | 9 | 313 | 0.0 | 0.0 | 0.00 | 0.00 | 0.00 | 89 | 1017.7 |
| 20260508064731 | 8 | 313 | 0.0 | 0.0 | 0.00 | 0.00 | 0.00 | 88 | 1017.7 |
| 20260508064239 | 8 | 313 | 0.0 | 0.0 | 0.00 | 0.00 | 0.00 | 88 | 1017.7 |
| 20260508063727 | 9 | 313 | 0.0 | 0.0 | 0.00 | 0.00 | 0.00 | 87 | 1017.7 |
| 20260508063255 | 9 | 313 | 0.0 | 0.0 | 0.00 | 0.00 | 0.00 | 86 | 1017.6 |
| 20260508063223 | 9 | 313 | 0.0 | 0.0 | 0.00 | 0.00 | 0.00 | 86 | 1017.6 |
| 20260508062810 | 9 | 313 | 0.0 | 0.0 | 0.00 | 0.00 | 0.00 | 86 | 1017.6 |
| 20260508062738 | 9 | 313 | 0.0 | 0.0 | 0.00 | 0.00 | 0.00 | 86 | 1017.6 |
| 20260508062307 | 9 | 313 | 0.0 | 0.0 | 0.00 | 0.00 | 0.00 | 86 | 1017.6 |
| 20260508061723 | 9 | 313 | 0.0 | 0.0 | 0.00 | 0.00 | 0.00 | 86 | 1017.7 |
| 20260508061230 | 9 | 313 | 0.0 | 0.0 | 0.00 | 0.00 | 0.00 | 85 | 1017.7 |
| 20260508060722 | 9 | 313 | 0.0 | 0.0 | 0.00 | 0.00 | 0.00 | 85 | 1017.7 |
| 20260508060310 | 10 | 313 | 0.0 | 0.0 | 0.00 | 0.00 | 0.00 | 85 | 1017.7 |
| 20260508055725 | 10 | 313 | 0.0 | 0.0 | 0.00 | 0.00 | 0.00 | 84 | 1017.7 |
| 20260508055232 | 10 | 313 | 0.0 | 0.0 | 0.00 | 0.00 | 0.00 | 84 | 1017.8 |
| 20260508054740 | 10 | 313 | 0.0 | 0.0 | 0.00 | 0.00 | 0.00 | 83 | 1017.9 |
| 20260508054228 | 10 | 313 | 0.0 | 0.0 | 0.00 | 0.00 | 0.00 | 83 | 1017.9 |
| 20260508053736 | 10 | 313 | 0.0 | 0.0 | 0.00 | 0.00 | 0.00 | 83 | 1017.9 |
| 20260508053224 | 10 | 313 | 0.0 | 0.0 | 0.00 | 0.00 | 0.00 | 82 | 1018.0 |
| 20260508052731 | 10 | 313 | 0.0 | 0.0 | 0.00 | 0.00 | 0.00 | 82 | 1017.9 |
| 20260508052259 | 10 | 313 | 0.0 | 0.0 | 0.00 | 0.00 | 0.00 | 81 | 1017.7 |
| 20260508051756 | 11 | 313 | 0.0 | 0.0 | 0.00 | 0.00 | 0.00 | 81 | 1017.7 |
| 20260508051232 | 11 | 313 | 0.0 | 0.0 | 0.00 | 0.00 | 0.00 | 81 | 1017.9 |
| 20260508050724 | 11 | 313 | 0.0 | 0.0 | 0.00 | 0.00 | 0.00 | 80 | 1017.8 |
| 20260508050308 | 11 | 313 | 0.0 | 0.0 | 0.00 | 0.00 | 0.00 | 80 | 1017.9 |
| 20260508050236 | 11 | 313 | 0.0 | 0.0 | 0.00 | 0.00 | 0.00 | 80 | 1017.9 |
| 20260508045727 | 11 | 313 | 0.0 | 0.0 | 0.00 | 0.00 | 0.00 | 79 | 1017.9 |
| 20260508045235 | 11 | 313 | 0.0 | 0.0 | 0.00 | 0.00 | 0.00 | 78 | 1017.9 |
| 20260508044723 | 11 | 313 | 0.0 | 0.0 | 0.00 | 0.00 | 0.00 | 77 | 1017.9 |
| 20260508044310 | 11 | 313 | 0.0 | 0.0 | 0.00 | 0.00 | 0.00 | 77 | 1018.0 |
| 20260508044239 | 11 | 313 | 0.0 | 0.0 | 0.00 | 0.00 | 0.00 | 77 | 1018.0 |
| 20260508043727 | 12 | 313 | 0.0 | 0.0 | 0.00 | 0.00 | 0.00 | 76 | 1018.1 |
| 20260508043235 | 12 | 313 | 0.0 | 0.0 | 0.00 | 0.00 | 0.00 | 76 | 1018.1 |
| 20260508042722 | 12 | 313 | 0.0 | 0.0 | 0.00 | 0.00 | 0.00 | 75 | 1018.0 |
| 20260508042230 | 12 | 313 | 0.0 | 0.0 | 0.00 | 0.00 | 0.00 | 75 | 1018.1 |
| 20260508041738 | 12 | 313 | 0.0 | 0.0 | 0.00 | 0.00 | 0.00 | 74 | 1018.1 |
| 20260508041305 | 12 | 313 | 0.0 | 0.0 | 0.00 | 0.00 | 0.00 | 73 | 1018.1 |
| 20260508040722 | 12 | 313 | 0.0 | 0.0 | 0.00 | 0.00 | 0.00 | 73 | 1018.1 |
| 20260508040310 | 13 | 313 | 0.0 | 0.0 | 0.00 | 0.00 | 0.00 | 72 | 1018.0 |
| 20260508035729 | 13 | 313 | 0.0 | 0.0 | 0.00 | 0.00 | 0.00 | 70 | 1017.9 |
| 20260508035237 | 13 | 313 | 0.0 | 0.0 | 0.00 | 0.00 | 0.00 | 70 | 1017.8 |
| 20260508034805 | 13 | 313 | 0.0 | 0.0 | 0.00 | 0.00 | 0.00 | 69 | 1017.6 |
| 20260508034302 | 13 | 313 | 0.0 | 0.0 | 0.00 | 0.00 | 0.00 | 68 | 1017.7 |
| 20260508034230 | 13 | 313 | 0.0 | 0.0 | 0.00 | 0.00 | 0.00 | 68 | 1017.7 |
| 20260508033738 | 14 | 313 | 0.0 | 0.0 | 0.00 | 0.00 | 0.00 | 69 | 1017.8 |
| 20260508033226 | 14 | 313 | 0.0 | 0.0 | 0.00 | 0.00 | 0.00 | 67 | 1017.8 |
| 20260508032730 | 14 | 313 | 0.0 | 0.0 | 0.00 | 0.00 | 0.00 | 66 | 1018.0 |
| 20260508032238 | 15 | 313 | 0.0 | 0.0 | 0.00 | 0.00 | 0.00 | 66 | 1018.0 |
| 20260508031726 | 15 | 313 | 0.0 | 0.0 | 0.00 | 0.00 | 0.00 | 65 | 1018.0 |
| 20260508031234 | 15 | 313 | 0.0 | 0.0 | 0.00 | 0.00 | 0.00 | 64 | 1017.9 |
| 20260508030722 | 15 | 313 | 0.0 | 0.0 | 0.00 | 0.00 | 0.00 | 63 | 1017.8 |
| 20260508030230 | 15 | 313 | 0.0 | 0.0 | 0.00 | 0.00 | 0.00 | 63 | 1017.8 |
| 20260508025721 | 16 | 313 | 0.0 | 0.0 | 0.00 | 0.00 | 0.00 | 62 | 1017.8 |
| 20260508025228 | 16 | 313 | 0.0 | 0.0 | 0.00 | 0.00 | 0.00 | 62 | 1018.0 |
| 20260508024756 | 16 | 313 | 0.0 | 0.0 | 0.00 | 0.00 | 0.00 | 60 | 1018.0 |
| 20260508024232 | 16 | 313 | 0.0 | 1.6 | 0.00 | 0.00 | 0.00 | 60 | 1018.1 |
| 20260508023759 | 16 | 313 | 0.0 | 1.6 | 0.00 | 0.00 | 0.00 | 58 | 1018.1 |
| 20260508023256 | 17 | 321 | 0.0 | 3.2 | 0.00 | 0.00 | 0.00 | 57 | 1018.1 |
| 20260508022731 | 17 | 321 | 0.0 | 3.2 | 0.00 | 0.00 | 0.00 | 56 | 1018.2 |
| 20260508022239 | 17 | 321 | 0.0 | 4.8 | 0.00 | 0.00 | 0.00 | 55 | 1018.1 |
| 20260508021727 | 17 | 323 | 3.2 | 4.8 | 0.00 | 0.00 | 0.00 | 54 | 1018.2 |
| 20260508021235 | 17 | 320 | 0.0 | 3.2 | 0.00 | 0.00 | 0.00 | 54 | 1018.2 |
| 20260508020803 | 17 | 282 | 0.0 | 3.2 | 0.00 | 0.00 | 0.00 | 53 | 1018.2 |
| 20260508020731 | 17 | 282 | 0.0 | 3.2 | 0.00 | 0.00 | 0.00 | 53 | 1018.2 |
| 20260508020239 | 17 | 279 | 0.0 | 3.2 | 0.00 | 0.00 | 0.00 | 53 | 1018.3 |
| 20260508015726 | 17 | 284 | 0.0 | 3.2 | 0.00 | 0.00 | 0.00 | 54 | 1018.3 |
| 20260508015234 | 17 | 344 | 1.6 | 3.2 | 0.00 | 0.00 | 0.00 | 54 | 1018.2 |
| 20260508014726 | 17 | 327 | 0.0 | 3.2 | 0.00 | 0.00 | 0.00 | 54 | 1018.3 |
| 20260508014233 | 17 | 291 | 0.0 | 6.4 | 0.00 | 0.00 | 0.00 | 54 | 1018.4 |
| 20260508013721 | 17 | 326 | 3.2 | 6.4 | 0.00 | 0.00 | 0.00 | 54 | 1018.4 |
| 20260508013229 | 18 | 34 | 1.6 | 6.4 | 0.00 | 0.00 | 0.00 | 54 | 1018.4 |
| 20260508012736 | 18 | 38 | 1.6 | 11.3 | 0.00 | 0.00 | 0.00 | 54 | 1018.5 |
| 20260508012307 | 18 | 333 | 4.8 | 11.3 | 0.00 | 0.00 | 0.00 | 53 | 1018.4 |
| 20260508012233 | 18 | 333 | 4.8 | 11.3 | 0.00 | 0.00 | 0.00 | 53 | 1018.4 |
| 20260508011740 | 18 | 290 | 3.2 | 6.4 | 0.00 | 0.00 | 0.00 | 53 | 1018.4 |
| 20260508011228 | 18 | 223 | 1.6 | 4.8 | 0.00 | 0.00 | 0.00 | 53 | 1018.5 |
| 20260508010756 | 18 | 252 | 1.6 | 4.8 | 0.00 | 0.00 | 0.00 | 54 | 1018.7 |
| 20260508010312 | 18 | 332 | 1.6 | 8.0 | 0.00 | 0.00 | 0.00 | 53 | 1018.8 |
| 20260508005808 | 18 | 5 | 1.6 | 8.0 | 0.00 | 0.00 | 0.00 | 53 | 1018.9 |
| 20260508005224 | 18 | 338 | 1.6 | 4.8 | 0.00 | 0.00 | 0.00 | 54 | 1019.0 |
| 20260508004732 | 18 | 22 | 1.6 | 6.4 | 0.00 | 0.00 | 0.00 | 53 | 1018.9 |
| 20260508004300 | 18 | 313 | 1.6 | 6.4 | 0.00 | 0.00 | 0.00 | 52 | 1018.9 |
| 20260508003757 | 18 | 329 | 1.6 | 9.7 | 0.00 | 0.00 | 0.00 | 53 | 1019.0 |
| 20260508003233 | 18 | 273 | 3.2 | 11.3 | 0.00 | 0.00 | 0.00 | 53 | 1019.1 |
| 20260508002724 | 18 | 299 | 1.6 | 4.8 | 0.00 | 0.00 | 0.00 | 52 | 1019.1 |
| 20260508002232 | 18 | 346 | 1.6 | 6.4 | 0.00 | 0.00 | 0.00 | 52 | 1019.1 |
| 20260508001740 | 18 | 355 | 3.2 | 8.0 | 0.00 | 0.00 | 0.00 | 53 | 1019.0 |
| 20260508001228 | 18 | 348 | 1.6 | 8.0 | 0.00 | 0.00 | 0.00 | 52 | 1019.0 |
| 20260508000736 | 18 | 252 | 1.6 | 8.0 | 0.00 | 0.00 | 0.00 | 52 | 1019.0 |
| 20260508000224 | 18 | 335 | 3.2 | 8.0 | 0.00 | 0.00 | 0.00 | 52 | 1019.1 |
| 20260507235731 | 18 | 299 | 1.6 | 8.0 | 0.00 | 0.00 | 0.00 | 53 | 1019.1 |
| 20260507235239 | 18 | 281 | 3.2 | 8.0 | 0.00 | 0.00 | 0.00 | 52 | 1019.1 |
| 20260507234727 | 18 | 281 | 3.2 | 6.4 | 0.00 | 0.00 | 0.00 | 52 | 1019.1 |
| 20260507234239 | 18 | 146 | 1.6 | 8.0 | 0.00 | 0.00 | 0.00 | 52 | 1019.1 |
| 20260507233727 | 18 | 44 | 4.8 | 6.4 | 0.00 | 0.00 | 0.00 | 52 | 1019.1 |
| 20260507233235 | 18 | 319 | 3.2 | 6.4 | 0.00 | 0.00 | 0.00 | 50 | 1019.2 |
| 20260507232722 | 18 | 324 | 1.6 | 4.8 | 0.00 | 0.00 | 0.00 | 52 | 1019.2 |
| 20260507232310 | 18 | 296 | 1.6 | 9.7 | 0.00 | 0.00 | 0.00 | 52 | 1019.2 |
| 20260507231806 | 18 | 261 | 4.8 | 9.7 | 0.00 | 0.00 | 0.00 | 53 | 1019.2 |
| 20260507231223 | 18 | 271 | 0.0 | 6.4 | 0.00 | 0.00 | 0.00 | 53 | 1019.3 |
| 20260507230811 | 18 | 205 | 1.6 | 6.4 | 0.00 | 0.00 | 0.00 | 52 | 1019.4 |
| 20260507230308 | 18 | 92 | 0.0 | 4.8 | 0.00 | 0.00 | 0.00 | 52 | 1019.5 |
| 20260507225723 | 18 | 9 | 1.6 | 4.8 | 0.00 | 0.00 | 0.00 | 53 | 1019.5 |
| 20260507225311 | 18 | 355 | 3.2 | 4.8 | 0.00 | 0.00 | 0.00 | 52 | 1019.5 |
| 20260507224727 | 18 | 333 | 1.6 | 9.7 | 0.00 | 0.00 | 0.00 | 53 | 1019.7 |
| 20260507224255 | 17 | 307 | 3.2 | 9.7 | 0.00 | 0.00 | 0.00 | 53 | 1019.6 |
| 20260507224223 | 17 | 307 | 3.2 | 9.7 | 0.00 | 0.00 | 0.00 | 53 | 1019.6 |
| 20260507223731 | 18 | 231 | 1.6 | 11.3 | 0.00 | 0.00 | 0.00 | 53 | 1019.6 |
| 20260507223239 | 18 | 261 | 3.2 | 11.3 | 0.00 | 0.00 | 0.00 | 54 | 1019.5 |
| 20260507222806 | 18 | 148 | 1.6 | 4.8 | 0.00 | 0.00 | 0.00 | 53 | 1019.7 |
| 20260507222734 | 18 | 148 | 1.6 | 4.8 | 0.00 | 0.00 | 0.00 | 53 | 1019.7 |
| 20260507222222 | 17 | 50 | 1.6 | 6.4 | 0.00 | 0.00 | 0.00 | 55 | 1019.7 |
| 20260507221734 | 17 | 55 | 1.6 | 6.4 | 0.00 | 0.00 | 0.00 | 55 | 1019.8 |
| 20260507221222 | 17 | 171 | 1.6 | 4.8 | 0.00 | 0.00 | 0.00 | 58 | 1019.9 |
| 20260507220810 | 16 | 320 | 0.0 | 6.4 | 0.00 | 0.00 | 0.00 | 58 | 1019.8 |
| 20260507220227 | 16 | 102 | 1.6 | 6.4 | 0.00 | 0.00 | 0.00 | 56 | 1019.8 |
| 20260507215754 | 17 | 309 | 3.2 | 6.4 | 0.00 | 0.00 | 0.00 | 57 | 1019.9 |
| 20260507215230 | 16 | 178 | 1.6 | 8.0 | 0.00 | 0.00 | 0.00 | 60 | 1020.0 |
| 20260507214738 | 16 | 286 | 3.2 | 9.7 | 0.00 | 0.00 | 0.00 | 59 | 1020.0 |
| 20260507214226 | 16 | 225 | 3.2 | 9.7 | 0.00 | 0.00 | 0.00 | 59 | 1020.1 |
| 20260507213734 | 16 | 295 | 1.6 | 4.8 | 0.00 | 0.00 | 0.00 | 59 | 1020.2 |
| 20260507213222 | 16 | 153 | 0.0 | 3.2 | 0.00 | 0.00 | 0.00 | 58 | 1020.2 |
| 20260507212729 | 16 | 131 | 0.0 | 3.2 | 0.00 | 0.00 | 0.00 | 58 | 1020.2 |
| 20260507212221 | 16 | 150 | 1.6 | 4.8 | 0.00 | 0.00 | 0.00 | 58 | 1020.4 |
| 20260507211729 | 16 | 34 | 0.0 | 4.8 | 0.00 | 0.00 | 0.00 | 59 | 1020.4 |
| 20260507211237 | 16 | 291 | 3.2 | 4.8 | 0.00 | 0.00 | 0.00 | 60 | 1020.5 |
| 20260507210725 | 15 | 135 | 1.6 | 6.4 | 0.00 | 0.00 | 0.00 | 63 | 1020.5 |
| 20260507210313 | 15 | 97 | 3.2 | 8.0 | 0.00 | 0.00 | 0.00 | 60 | 1020.6 |
| 20260507205728 | 15 | 248 | 3.2 | 8.0 | 0.00 | 0.00 | 0.00 | 60 | 1020.7 |
| 20260507205256 | 15 | 228 | 1.6 | 6.4 | 0.00 | 0.00 | 0.00 | 62 | 1020.6 |
| 20260507204812 | 15 | 198 | 1.6 | 8.0 | 0.00 | 0.00 | 0.00 | 62 | 1020.8 |
| 20260507204740 | 15 | 198 | 1.6 | 8.0 | 0.00 | 0.00 | 0.00 | 62 | 1020.8 |
| 20260507204228 | 15 | 296 | 3.2 | 8.0 | 0.00 | 0.00 | 0.00 | 60 | 1020.8 |
| 20260507203736 | 16 | 323 | 3.2 | 8.0 | 0.00 | 0.00 | 0.00 | 60 | 1020.7 |
| 20260507203224 | 16 | 281 | 3.2 | 6.4 | 0.00 | 0.00 | 0.00 | 61 | 1020.8 |
| 20260507202731 | 16 | 257 | 4.8 | 6.4 | 0.00 | 0.00 | 0.00 | 61 | 1020.8 |
| 20260507202239 | 15 | 251 | 1.6 | 4.8 | 0.00 | 0.00 | 0.00 | 61 | 1020.8 |
| 20260507201731 | 15 | 180 | 1.6 | 4.8 | 0.00 | 0.00 | 0.00 | 63 | 1020.9 |
| 20260507201239 | 15 | 309 | 1.6 | 4.8 | 0.00 | 0.00 | 0.00 | 62 | 1020.9 |
| 20260507200806 | 15 | 51 | 1.6 | 4.8 | 0.00 | 0.00 | 0.00 | 62 | 1021.0 |
| 20260507200735 | 15 | 51 | 1.6 | 4.8 | 0.00 | 0.00 | 0.00 | 62 | 1021.0 |
| 20260507200223 | 15 | 334 | 3.2 | 6.4 | 0.00 | 0.00 | 0.00 | 62 | 1020.9 |
| 20260507195730 | 15 | 100 | 1.6 | 6.4 | 0.00 | 0.00 | 0.00 | 62 | 1020.9 |
| 20260507195238 | 15 | 88 | 0.0 | 3.2 | 0.00 | 0.00 | 0.00 | 63 | 1020.9 |
| 20260507194726 | 15 | 167 | 1.6 | 4.8 | 0.00 | 0.00 | 0.00 | 64 | 1020.9 |
| 20260507194254 | 15 | 127 | 4.8 | 6.4 | 0.00 | 0.00 | 0.00 | 63 | 1021.0 |
| 20260507193811 | 15 | 130 | 3.2 | 6.4 | 0.00 | 0.00 | 0.00 | 63 | 1021.2 |
| 20260507193308 | 15 | 58 | 1.6 | 4.8 | 0.00 | 0.00 | 0.00 | 63 | 1021.2 |
| 20260507192724 | 15 | 16 | 3.2 | 6.4 | 0.00 | 0.00 | 0.00 | 64 | 1021.2 |
| 20260507192232 | 15 | 325 | 3.2 | 6.4 | 0.00 | 0.00 | 0.00 | 63 | 1021.2 |
| 20260507191759 | 15 | 309 | 1.6 | 6.4 | 0.00 | 0.00 | 0.00 | 64 | 1021.1 |
| 20260507191728 | 15 | 309 | 1.6 | 6.4 | 0.00 | 0.00 | 0.00 | 64 | 1021.1 |
| 20260507191256 | 15 | 138 | 1.6 | 4.8 | 0.00 | 0.00 | 0.00 | 65 | 1021.1 |
| 20260507190732 | 14 | 252 | 1.6 | 6.4 | 0.00 | 0.00 | 0.00 | 65 | 1021.1 |
| 20260507190240 | 14 | 159 | 3.2 | 6.4 | 0.00 | 0.00 | 0.00 | 65 | 1021.3 |
| 20260507185807 | 14 | 78 | 3.2 | 9.7 | 0.00 | 0.00 | 0.00 | 66 | 1021.3 |
| 20260507185228 | 13 | 83 | 4.8 | 11.3 | 0.00 | 0.00 | 0.00 | 65 | 1021.2 |
| 20260507184736 | 13 | 74 | 1.6 | 9.7 | 0.00 | 0.00 | 0.00 | 67 | 1021.4 |
| 20260507184303 | 13 | 93 | 6.4 | 9.7 | 0.00 | 0.00 | 0.00 | 67 | 1021.5 |
| 20260507183759 | 13 | 182 | 3.2 | 9.7 | 0.00 | 0.00 | 0.00 | 68 | 1021.5 |
| 20260507183728 | 13 | 182 | 3.2 | 9.7 | 0.00 | 0.00 | 0.00 | 68 | 1021.5 |
| 20260507183236 | 13 | 115 | 3.2 | 4.8 | 0.00 | 0.00 | 0.00 | 68 | 1021.5 |
| 20260507182723 | 13 | 269 | 1.6 | 6.4 | 0.00 | 0.00 | 0.00 | 68 | 1021.6 |
| 20260507182231 | 13 | 273 | 3.2 | 6.4 | 0.00 | 0.00 | 0.00 | 67 | 1021.5 |
| 20260507181739 | 13 | 122 | 1.6 | 4.8 | 0.00 | 0.00 | 0.00 | 66 | 1021.5 |
| 20260507181227 | 13 | 105 | 0.0 | 4.8 | 0.00 | 0.00 | 0.00 | 68 | 1021.5 |
| 20260507180735 | 13 | 116 | 0.0 | 3.2 | 0.00 | 0.00 | 0.00 | 69 | 1021.4 |
| 20260507180223 | 13 | 163 | 1.6 | 3.2 | 0.00 | 0.00 | 0.00 | 68 | 1021.5 |
| 20260507175730 | 13 | 108 | 1.6 | 4.8 | 0.00 | 0.00 | 0.00 | 67 | 1021.6 |
| 20260507175222 | 13 | 273 | 1.6 | 4.8 | 0.00 | 0.00 | 0.00 | 73 | 1021.7 |
| 20260507174730 | 12 | 157 | 1.6 | 6.4 | 0.00 | 0.00 | 0.00 | 73 | 1021.7 |
| 20260507174258 | 12 | 265 | 3.2 | 9.7 | 0.00 | 0.00 | 0.00 | 73 | 1021.7 |
| 20260507174226 | 12 | 265 | 3.2 | 9.7 | 0.00 | 0.00 | 0.00 | 73 | 1021.7 |
| 20260507173733 | 12 | 344 | 1.6 | 9.7 | 0.00 | 0.00 | 0.00 | 73 | 1021.8 |
| 20260507173241 | 12 | 85 | 1.6 | 8.0 | 0.00 | 0.00 | 0.00 | 73 | 1021.7 |
| 20260507172808 | 12 | 323 | 3.2 | 8.0 | 0.00 | 0.00 | 0.00 | 73 | 1021.7 |
| 20260507172736 | 12 | 323 | 3.2 | 8.0 | 0.00 | 0.00 | 0.00 | 73 | 1021.7 |
| 20260507172224 | 12 | 258 | 3.2 | 4.8 | 0.00 | 0.00 | 0.00 | 74 | 1021.6 |
| 20260507171732 | 12 | 192 | 0.0 | 3.2 | 0.00 | 0.00 | 0.00 | 75 | 1021.6 |
| 20260507171240 | 12 | 123 | 0.0 | 4.8 | 0.00 | 0.00 | 0.00 | 76 | 1021.6 |
| 20260507170728 | 12 | 196 | 1.6 | 4.8 | 0.00 | 0.00 | 0.00 | 75 | 1021.6 |
| 20260507170256 | 12 | 302 | 0.0 | 4.8 | 0.00 | 0.00 | 0.00 | 75 | 1021.6 |
| 20260507165731 | 12 | 15 | 1.6 | 4.8 | 0.00 | 0.00 | 0.00 | 77 | 1021.5 |
| 20260507165223 | 11 | 269 | 1.6 | 4.8 | 0.00 | 0.00 | 0.00 | 76 | 1021.5 |
| 20260507164807 | 11 | 40 | 1.6 | 4.8 | 0.00 | 0.00 | 0.00 | 77 | 1021.6 |
| 20260507164735 | 11 | 40 | 1.6 | 4.8 | 0.00 | 0.00 | 0.00 | 77 | 1021.6 |
| 20260507164302 | 11 | 296 | 0.0 | 6.4 | 0.00 | 0.00 | 0.00 | 77 | 1021.6 |
| 20260507163723 | 11 | 281 | 1.6 | 4.8 | 0.00 | 0.00 | 0.00 | 78 | 1021.6 |
| 20260507163231 | 11 | 55 | 0.0 | 3.2 | 0.00 | 0.00 | 0.00 | 79 | 1021.6 |
| 20260507162738 | 11 | 302 | 0.0 | 4.8 | 0.00 | 0.00 | 0.00 | 79 | 1021.7 |
| 20260507162226 | 11 | 310 | 1.6 | 6.4 | 0.00 | 0.00 | 0.00 | 78 | 1021.7 |
| 20260507161754 | 11 | 268 | 3.2 | 6.4 | 0.00 | 0.00 | 0.00 | 78 | 1021.6 |
| 20260507161231 | 11 | 325 | 1.6 | 3.2 | 0.00 | 0.00 | 0.00 | 78 | 1021.7 |
| 20260507160759 | 11 | 254 | 1.6 | 4.8 | 0.00 | 0.00 | 0.00 | 78 | 1021.7 |
| 20260507160236 | 11 | 282 | 0.0 | 4.8 | 0.00 | 0.00 | 0.00 | 78 | 1021.6 |
| 20260507155723 | 11 | 336 | 1.6 | 4.8 | 0.00 | 0.00 | 0.00 | 78 | 1021.6 |
| 20260507155231 | 11 | 335 | 0.0 | 4.8 | 0.00 | 0.00 | 0.00 | 79 | 1021.6 |
| 20260507154739 | 11 | 279 | 1.6 | 4.8 | 0.00 | 0.00 | 0.00 | 79 | 1021.6 |
| 20260507154231 | 11 | 266 | 0.0 | 3.2 | 0.00 | 0.00 | 0.00 | 78 | 1021.6 |
| 20260507153739 | 11 | 72 | 0.0 | 3.2 | 0.00 | 0.00 | 0.00 | 78 | 1021.6 |
| 20260507153307 | 11 | 285 | 0.0 | 3.2 | 0.00 | 0.00 | 0.00 | 79 | 1021.6 |
| 20260507152723 | 11 | 288 | 0.0 | 4.8 | 0.00 | 0.00 | 0.00 | 79 | 1021.6 |
| 20260507152231 | 11 | 286 | 0.0 | 6.4 | 0.00 | 0.00 | 0.00 | 79 | 1021.5 |
| 20260507151739 | 11 | 254 | 1.6 | 4.8 | 0.00 | 0.00 | 0.00 | 79 | 1021.6 |
| 20260507151227 | 11 | 257 | 0.0 | 3.2 | 0.00 | 0.00 | 0.00 | 80 | 1021.5 |
| 20260507150754 | 11 | 273 | 0.0 | 6.4 | 0.00 | 0.00 | 0.00 | 80 | 1021.6 |
| 20260507150231 | 11 | 281 | 0.0 | 6.4 | 0.00 | 0.00 | 0.00 | 79 | 1021.5 |